Regional Weather Roundup
Issued by NWS

Home | Current Version | Previous Version | Text Only | Print | Product List | Glossary On
Versions: 1 2 3 4 5 6 7 8 9 10 11 12 13 14 15 16 17 18 19 20 21 22 23 24 25 26 27 28 29 30 31 32 33 34 35 36 37 38 39 40 41 42 43 44 45 46 47 48 49 50
654
ASUS43 KOAX 231710
RWRNE

WEATHER ROUNDUP FOR NEBRASKA
NATIONAL WEATHER SERVICE OMAHA NE
1200 PM CDT FRI JUN 23 2017

NOTES: SATELLITE DATA IS BEING USED TO AUGMENT CLOUD COVER ABOVE
       12000 FEET.
       "FAIR" INDICATES FEW OR NO CLOUDS BELOW 12,000 FEET WITH NO
       SIGNIFICANT WEATHER AND/OR OBSTRUCTIONS TO VISIBILITY.

  * THESE STATIONS DO NOT REPORT WEATHER SUCH AS RAIN...SNOW OR FOG.

NEZ001>004-019>022-054>056-231800-
NEBRASKA PANHANDLE

CITY           SKY/WX    TMP DP  RH WIND       PRES   REMARKS
SCOTTSBLUFF    SUNNY     66  35  31 NW16      30.23F
ALLIANCE       SUNNY     64  37  36 NW17G29   30.21S
CHADRON        SUNNY     65  37  35 NW13G21   30.20F
GORDON         PTSUNNY   61  44  53 N14G21    30.19S
KIMBALL        CLOUDY    56  40  56 N9G17     30.28S
SIDNEY         CLOUDY    57  39  51 NW14      30.26S
$$

NEZ057>060-069>072-079>082-231800-
SOUTHWEST NEBRASKA

CITY           SKY/WX    TMP DP  RH WIND       PRES   REMARKS
NORTH PLATTE   CLOUDY    72  42  34 NW17G23   30.15S
IMPERIAL       SUNNY     71  42  35 N12G22    30.20S
LEXINGTON      CLOUDY    66  49  53 NW7       30.13F
MCCOOK         MOSUNNY   72  45  37 N16G26    30.15F
OGALLALA       CLOUDY    68  35  30 NW13G21   30.19F
$$

NEZ005>010-023>029-035>040-094-231800-
NORTH CENTRAL NEBRASKA

CITY           SKY/WX    TMP DP  RH WIND       PRES   REMARKS
VALENTINE      PTSUNNY   69  40  34 NW20G32   30.14S
AINSWORTH      PTSUNNY   64  46  51 N20G29    30.14R
BROKEN BOW     SUNNY     69  46  43 NW17G26   30.12R
O`NEILL        MOSUNNY   66  49  54 NW21G28   30.09S
ORD            SUNNY     68  45  43 N24G32    30.09S
THEDFORD       MOSUNNY   67  44  43 NW21G31   30.16S
$$

NEZ041-046>049-061>064-073>077-083>087-231800-
SOUTH CENTRAL NEBRASKA

CITY           SKY/WX    TMP DP  RH WIND       PRES   REMARKS
GRAND ISLAND   MOSUNNY   68  49  50 N20G26    30.10F
AURORA         CLOUDY    64  51  62 N9        30.10S
HASTINGS       CLOUDY    65  49  56 N15       30.12F
HEBRON         CLOUDY    71  46  40 N21G26    30.09S
HOLDREGE       CLOUDY    64  46  50 N12       30.13S
KEARNEY *      CLOUDY    66  45  45 N16G23    30.13S
YORK           CLOUDY    64  54  68 N14       30.08F
$$

NEZ011>018-030>034-042>045-231800-
NORTHEAST NEBRASKA

CITY           SKY/WX    TMP DP  RH WIND       PRES   REMARKS
NORFOLK        CLOUDY    66  49  54 N22G32    30.02S
ALBION         MOSUNNY   67  48  51 NW22G28   30.06R
BLAIR          PTSUNNY   66  51  58 NW15G24   30.03R
FREMONT        RAIN      64  51  62 NW15      30.03F
TEKAMAH        LGT RAIN  63  52  67 NW14      30.01S
WAYNE          CLOUDY    64  50  59 NW21      30.03R
$$

NEZ050>053-065>068-078-088>093-231800-
SOUTHEAST NEBRASKA

CITY           SKY/WX    TMP DP  RH WIND       PRES   REMARKS
LINCOLN        LGT RAIN  66  52  60 NW14      30.07R
OMAHA EPPLEY   CLOUDY    68  50  52 NW17G24   30.03R
BEATRICE       MOSUNNY   71  51  48 N17G24    30.07R
FALLS CITY     PTSUNNY   71  54  54 NW20G28   30.00R
NEBRASKA CITY  PTSUNNY   69  53  57 N20G25    30.03R
PLATTSMOUTH    CLOUDY    65  50  57 NW16G26   30.04R
$$

NEZ044-045-051>053-067-231800-
OMAHA AREA

CITY           SKY/WX    TMP DP  RH WIND       PRES   REMARKS
OMAHA EPPLEY   CLOUDY    68  50  52 NW17G24   30.03R
BLAIR          PTSUNNY   66  51  58 NW15G24   30.03R
FREMONT        RAIN      64  51  62 NW15      30.03F
MILLARD        CLOUDY    68  52  56 NW12G17   30.03R
OFFUTT AFB     LGT RAIN  68  50  52 NW14G23   30.06R
PLATTSMOUTH    CLOUDY    65  50  57 NW16G26   30.04R
WAHOO          PTSUNNY   68  48  48 N18G25    30.04F
$$




USA.gov is the U.S. government's official web portal to all federal, state and local government web resources and services.